This is the latest recevied weather packets stored in our database for station/object XQ6AK-15. If no packets are shown the sender has not sent any weather packets the latest 10 day(s).
| Time | Temp. | Humidity | Pressure | Rain* | Wind** | Luminosity | Snow |
|---|---|---|---|---|---|---|---|
| 1777727032 | -0.56° C | 99% | 1022.1 hPa | 0 mm | - | 67 W/m² | - |
| 1777726729 | -0.56° C | 99% | 1022.2 hPa | 0 mm | - | 53 W/m² | - |
| 1777726427 | -0.56° C | 99% | 1022.2 hPa | 0 mm | - | 42 W/m² | - |
| 1777726123 | -0.56° C | 99% | 1022.4 hPa | 0 mm | - | 56 W/m² | - |
| 1777725820 | -1.11° C | 99% | 1022.5 hPa | 0 mm | - | 45 W/m² | - |
| 1777725518 | -1.11° C | 99% | 1022.4 hPa | 0 mm | - | 50 W/m² | - |
| 1777725215 | -1.11° C | 99% | 1022.5 hPa | 0 mm | - | 42 W/m² | - |
| 1777724912 | -1.11° C | 99% | 1022.4 hPa | 0 mm | - | 35 W/m² | - |
| 1777724608 | -1.11° C | 99% | 1022.4 hPa | 0 mm | - | 31 W/m² | - |
| 1777724307 | -1.11° C | 99% | 1022.2 hPa | 0 mm | - | 29 W/m² | - |
| 1777724004 | -1.67° C | 99% | 1022.3 hPa | 0 mm | - | 23 W/m² | - |
| 1777723700 | -1.67° C | 99% | 1022.3 hPa | 0 mm | - | 19 W/m² | - |
| 1777723397 | -1.67° C | 99% | 1022.5 hPa | 0 mm | - | 14 W/m² | - |
| 1777723095 | -1.67° C | 99% | 1022.5 hPa | 0 mm | - | 10 W/m² | - |
| 1777722792 | -1.67° C | 99% | 1022.4 hPa | 0 mm | - | 8 W/m² | - |
| 1777722488 | -1.67° C | 99% | 1022.6 hPa | 0 mm | - | 4 W/m² | - |
| 1777722184 | -1.67° C | 99% | 1022.4 hPa | 0 mm | - | 2 W/m² | - |
| 1777721881 | -1.67° C | 99% | 1022.5 hPa | 0 mm | - | 0 W/m² | - |
| 1777721579 | -1.67° C | 99% | 1022.7 hPa | 0 mm | - | 0 W/m² | - |
| 1777721277 | -1.67° C | 99% | 1022.7 hPa | 0 mm | - | 0 W/m² | - |
| 1777720975 | -1.67° C | 99% | 1022.7 hPa | 0 mm | - | 0 W/m² | - |
| 1777720671 | -1.67° C | 99% | 1022.7 hPa | 0 mm | - | 0 W/m² | - |
| 1777720369 | -1.67° C | 99% | 1022.8 hPa | 0 mm | - | 0 W/m² | - |
| 1777720066 | -1.67° C | 99% | 1022.7 hPa | 0 mm | - | 0 W/m² | - |
| 1777719764 | -1.67° C | 99% | 1023 hPa | 0 mm | - | 0 W/m² | - |
* Rain latest hour (hover to see other rain measurements)
** Current wind speed in m/s (hover to see current wind gust speed)